Weather in Yushkozero

Russia / Republic of Karelia     64°44′53″N   32°06′13″E
temp.,
°C
wind,
m/s
gust,
m/s
humid.,
%
clouds,
%
prec.,
mm/h
press.,
hPa
HPBL,
m
6 august, fri
fri600:00+11ssw2278100 0.0 101817
03:00+10ssw118226 0.0 101911
06:00+11sw117857 0.0 101911
09:00+16s006252 0.0 1020258
12:00+20sse11467 0.0 10201282
15:00+19nne1149100 0.0 1019970
18:00+17e2564100 0.0 1020163
21:00+15se237260 0.0 102050
7 august, sat
sat700:00+11ese22803 0.0 102122
03:00+9ese22780 0.0 102212
06:00+10ene24752 0.0 1022108
09:00+16e36581 0.0 1021457
12:00+20e46420 0.0 10211655
15:00+20e56410 0.0 10201871
18:00+19e57482 0.0 10201226
21:00+14ene411665 0.0 1020419
8 august, sun
sun800:00+12ene41376100 0.0 1020340
03:00+12ene41376100 0.0 1019377
06:00+13e41472100 0.0 1018487
09:00+16e51362100 0.0 1018765
12:00+15e61363100 0.0 1017899
15:00+15e61265100 0.0 1018997
18:00+13ese51279100 0.1 1018871
21:00+12ese51287100 0.6 1018768
9 august, mon
mon900:00+12e4989100 0.0 1018586
03:00+11e3792100 0.0 1018476
06:00+11ene3793100 0.0 1018477
09:00+12e3591100 0.0 1018481
12:00+14e3484100 0.0 1018577
15:00+16ese3478100 0.1 1018752
18:00+16ese3681100 0.0 1017689
21:00+15ese3788100 0.0 1017348
10 august, tue
tue1000:00+14e389397 0.0 1017294
03:00+13e31097100 0.0 1016317
06:00+13e41196100 0.3 1015409
09:00+15ese4993100 1.2 1015493
12:00+16sse3694100 0.3 1015474
15:00+22sw465624 0.4 10151503
18:00+22wsw46580 0.0 10151222
21:00+16s228417 0.1 101734